STARLINK-32357, 61009

Orbit data source: Space-Track

STARLINK-32357, 61009 is a payload satellite owned by SpaceX/Seattle (US) in LEO that was launched on Thu, 05 Sep 2024 UTC via an FALCON 9 launch vehicle from the Air Force Eastern Test Range (AFETR). Payload-class satellites include a variety of spacecraft equipped with specific instruments for various scientific and technological missions. These include communications satellites like Starlink; space stations such as the ISS; scientific satellites like the Hubble; Earth observation satellites from companies like Planet Labs, Umbra, and HawkEye 360; GPS; miniature CubeSats for education and research; and military/defense satellites.

Loading next visibility...
Identifier
61009, 2024-158V
Orbit
LEO
Country
Flag of USUS
Related business
Manufacturer
SpaceX/Seattle
Mission
Partially operational Commercial Communications
Bus & Motor
STARLINK V2M, Unknown motor
Mass
730 kg wet, ~700 kg dry
Launch date (UTC)
2024-09-05 (1 year ago)
Launch vehicle
FALCON 9
Launch site
Air Force Eastern Test Range (AFETR)
Object type
Payload
Rocket body
Debris
Shape & HBR
Box + 2 Pan, 17.7 m
Radar Cross Section
33.884 m², Large (>1 m²)

Expand to show TLE details & history
Last TLE update: 2 days ago

TLE from 2 days ago
0 STARLINK-32357
1 61009U 24158V   25301.37722622  .00324283  00000-0  14311-2 0  9992
2 61009  53.1360 268.3227 0014418  97.1887 263.0776 15.82945868 66047
Epoch: 2025-10-28T09:03Z
TLE epoch observation values (Epoch: 2025-10-28T09:03:12.345Z)
Latitude
-0.00002°
Longitude
95.55566°
Altitude
324.21 km
Speed
7.714 km/s
True Right ascension
17h 53m 17s
True Declination
0° 00' 00"
Sunlit
Object was in daylight at epoch
Visualization orbit readout
Latitude
Unknown
Longitude
Unknown
Altitude
Unknown
Speed
Unknown
Apparent Right ascension
Unknown
Apparent Declination
Unknown
Sunlit
N/A
Visualization observer readout
Local Sidereal Time
12:07:07
Azimuth
Unknown
Elevation
Unknown
Doppler factor
Unknown
Orbital elements
Apogee altitude
332.042 km
Perigee altitude
312.72 km
Semi-major axis
6,700.518 km
Eccentricity
0.00144
Inclination
53.136°
RAAN
268.3227°
Arg. of periapsis
97.1887°
True anomaly
262.91362°
Mean anomaly
263.0776°
Eccentric anomaly
262.99561°
Mean motion
3.95713 °/min
Orbital period
90.97 mins
BSTAR
0.0014311
Loading maneuver chart data...
Computing Atmospheric mass density...
Loading historical data...
Loading historical data...
Loading historical data...
Loading historical data...
Loading historical data...
Loading historical data...
Loading historical data...

Documentation

Showing up to 5 results
|